Location: Gollag?dem
(17.0207°N, 80.7261°E)
Time: 07:42:31
(UTC+00:00)

ATLAS 3B R/B - Pass Details

Date: 03 August 2024
Orbit: 940 x 1254 km, 63.8° (Epoch: 11 September)

Event Time Altitude Azimuth Distance (km) Brightness Sun altitude
Rises 22:04:00 0° 348° (NNW) 4,193 6.0 -29.9°
Reaches altitude 10° 22:07:07 10° 357° (N) 3,214 5.5 -29.3°
Maximum altitude 22:14:07 36° 61° (ENE) 1,832 4.4 -27.8°
Drops below altitude 10° 22:20:47 10° 125° (SE) 3,071 5.4 -26.5°
Sets 22:23:41 0° 134° (SE) 3,986 5.9 -25.9°
